TimeAKDT,TemperatureF,Dew PointF,Humidity,Sea Level PressureIn,VisibilityMPH,Wind Direction,Wind SpeedMPH,Gust SpeedMPH,PrecipitationIn,Events,Conditions,WindDirDegrees,DateUTC
12:27 AM,46.4,46.4,100,30.16,10.0,SW,9.2,-,N/A,,Scattered Clouds,230,2012-10-05 08:27:00
12:53 AM,46.9,45.0,93,30.19,10.0,SW,6.9,-,N/A,,Partly Cloudy,230,2012-10-05 08:53:00
1:53 AM,46.0,45.0,96,30.20,10.0,Calm,Calm,-,N/A,,Clear,0,2012-10-05 09:53:00
2:53 AM,45.0,44.1,97,30.20,10.0,SW,4.6,-,N/A,,Clear,220,2012-10-05 10:53:00
3:44 AM,42.8,42.8,100,30.20,10.0,East,4.6,-,N/A,,Mostly Cloudy,80,2012-10-05 11:44:00
3:53 AM,42.1,42.1,100,30.21,10.0,East,4.6,-,N/A,,Mostly Cloudy,90,2012-10-05 11:53:00
4:08 AM,41.0,41.0,100,30.20,10.0,East,4.6,-,N/A,,Scattered Clouds,90,2012-10-05 12:08:00
4:19 AM,41.0,41.0,100,30.20,10.0,ENE,3.5,-,N/A,,Partly Cloudy,70,2012-10-05 12:19:00
4:53 AM,41.0,41.0,100,30.22,10.0,East,5.8,-,N/A,,Clear,90,2012-10-05 12:53:00
5:41 AM,39.2,39.2,100,30.20,2.5,Calm,Calm,-,N/A,,Partly Cloudy,0,2012-10-05 13:41:00
5:53 AM,39.9,39.9,100,30.22,2.5,Calm,Calm,-,N/A,,Clear,0,2012-10-05 13:53:00
6:07 AM,39.2,39.2,100,30.21,1.2,Calm,Calm,-,N/A,,Clear,0,2012-10-05 14:07:00
6:27 AM,39.2,39.2,100,30.21,1.0,Calm,Calm,-,N/A,,Mist,0,2012-10-05 14:27:00
6:32 AM,37.4,37.4,100,30.21,0.8,NW,3.5,-,N/A,,Mist,320,2012-10-05 14:32:00
6:53 AM,37.0,37.0,100,30.22,0.5,NE,3.5,-,N/A,Fog,Fog,50,2012-10-05 14:53:00
7:02 AM,37.4,37.4,100,30.21,0.2,NNE,4.6,-,N/A,Fog,Fog,30,2012-10-05 15:02:00
7:17 AM,37.4,37.4,100,30.22,0.2,Calm,Calm,-,N/A,Fog,Fog,0,2012-10-05 15:17:00
7:34 AM,37.4,37.4,100,30.21,1.0,SE,4.6,-,N/A,,Mist,130,2012-10-05 15:34:00
7:37 AM,37.4,37.4,100,30.21,2.5,ESE,3.5,-,N/A,,Scattered Clouds,110,2012-10-05 15:37:00
7:44 AM,37.4,37.4,100,30.21,8.0,East,3.5,-,N/A,,Partly Cloudy,100,2012-10-05 15:44:00
7:53 AM,37.9,37.9,100,30.22,3.0,Calm,Calm,-,N/A,,Clear,0,2012-10-05 15:53:00
7:56 AM,37.4,37.4,100,30.21,1.8,Calm,Calm,-,N/A,,Clear,0,2012-10-05 15:56:00
8:06 AM,37.4,37.4,100,30.21,5.0,Calm,Calm,-,N/A,,Clear,0,2012-10-05 16:06:00
8:53 AM,39.0,39.0,100,30.22,5.0,North,4.6,-,N/A,,Clear,360,2012-10-05 16:53:00
9:53 AM,39.9,39.9,100,30.21,10.0,Calm,Calm,-,N/A,,Partly Cloudy,0,2012-10-05 17:53:00
10:53 AM,43.0,43.0,100,30.22,10.0,East,4.6,-,N/A,,Overcast,80,2012-10-05 18:53:00
11:53 AM,44.1,44.1,100,30.21,10.0,East,4.6,-,0.00,Rain,Light Rain,80,2012-10-05 19:53:00
12:53 PM,46.0,45.0,96,30.20,9.0,East,6.9,-,0.02,Rain,Light Rain,80,2012-10-05 20:53:00
1:53 PM,46.9,46.0,97,30.18,10.0,NE,6.9,-,0.02,Rain,Light Rain,40,2012-10-05 21:53:00
2:53 PM,46.9,46.0,97,30.16,10.0,NNE,5.8,-,0.03,Rain,Light Rain,30,2012-10-05 22:53:00
3:41 PM,46.4,46.4,100,30.13,6.0,NNE,6.9,-,0.06,Rain,Light Rain,20,2012-10-05 23:41:00
3:53 PM,46.9,46.9,100,30.14,7.0,NNE,5.8,-,0.07,Rain,Rain,20,2012-10-05 23:53:00
4:53 PM,46.9,46.0,97,30.12,10.0,NNE,5.8,-,0.04,Rain,Light Rain,30,2012-10-06 00:53:00
5:43 PM,46.4,46.4,100,30.10,10.0,NE,4.6,-,0.00,Rain,Light Rain,50,2012-10-06 01:43:00
5:53 PM,46.0,46.0,100,30.10,10.0,NE,4.6,-,0.01,Rain,Light Rain,50,2012-10-06 01:53:00
6:00 PM,46.4,46.4,100,30.09,10.0,NE,5.8,-,0.00,Rain,Light Rain,50,2012-10-06 02:00:00
6:09 PM,46.4,46.4,100,30.10,10.0,NE,4.6,-,0.00,Rain,Light Rain,50,2012-10-06 02:09:00
6:46 PM,46.4,46.4,100,30.11,10.0,NNE,3.5,-,0.00,,Overcast,30,2012-10-06 02:46:00
6:53 PM,46.0,46.0,100,30.12,8.0,Calm,Calm,-,0.00,Rain,Light Rain,0,2012-10-06 02:53:00
7:18 PM,46.4,46.4,100,30.11,2.5,NE,4.6,-,0.00,Rain,Light Rain,50,2012-10-06 03:18:00
7:28 PM,46.4,46.4,100,30.10,4.0,NE,4.6,-,0.00,Rain,Light Rain,40,2012-10-06 03:28:00
7:53 PM,46.0,46.0,100,30.11,9.0,NNE,3.5,-,0.00,,Overcast,20,2012-10-06 03:53:00
8:53 PM,46.0,46.0,100,30.12,10.0,Calm,Calm,-,N/A,,Overcast,0,2012-10-06 04:53:00
9:18 PM,44.6,44.6,100,30.11,10.0,Calm,Calm,-,N/A,,Overcast,0,2012-10-06 05:18:00
9:53 PM,45.0,45.0,100,30.13,10.0,Calm,Calm,-,N/A,,Overcast,0,2012-10-06 05:53:00
10:08 PM,44.6,44.6,100,30.11,10.0,Calm,Calm,-,N/A,,Overcast,0,2012-10-06 06:08:00
10:24 PM,44.6,44.6,100,30.12,1.8,Calm,Calm,-,N/A,,Overcast,0,2012-10-06 06:24:00
10:32 PM,44.6,44.6,100,30.12,3.0,Calm,Calm,-,N/A,,Overcast,0,2012-10-06 06:32:00
10:53 PM,45.0,45.0,100,30.13,8.0,ESE,3.5,-,0.01,,Overcast,110,2012-10-06 06:53:00
11:04 PM,44.6,44.6,100,30.13,10.0,Calm,Calm,-,N/A,,Overcast,0,2012-10-06 07:04:00
11:12 PM,44.6,44.6,100,30.13,10.0,Calm,Calm,-,N/A,,Overcast,0,2012-10-06 07:12:00
11:21 PM,44.6,44.6,100,30.13,10.0,South,3.5,-,N/A,,Overcast,180,2012-10-06 07:21:00
11:49 PM,44.6,44.6,100,30.13,3.0,SSE,3.5,-,N/A,,Overcast,160,2012-10-06 07:49:00
11:53 PM,45.0,45.0,100,30.14,3.0,South,3.5,-,N/A,,Overcast,170,2012-10-06 07:53:00